Terug naar catalogus

ARIANE 44L DEB

ActiefHEO
NORAD 24723·DEBRIS·🇫🇷 France

Gelanceerd Jan 15, 1991 vanaf Guiana Space Centre

Loading…

Volgende Passages (komende 24 uur)

TLE

VersSource: Space-Track

Epoch: Sep 14, 2026, 16:15 UTC

1 24723U 91003F   26257.67719480 -.00000100  00000-0  50272-3 0  9996
2 24723   6.7620  44.4427 6845865 119.6194 302.1186  2.65128094293629

Volg ARIANE 44L DEB in realtime met AllMySat

Download on the App Store